Regional Weather Roundup
Issued by NWS Jackson, KY

Home | Current Version | Previous Version | Graphics & Text | Print | Product List | Glossary On
Versions: 1 2 3 4 5 6 7 8 9 10 11 12 13 14 15 16 17 18 19 20 21 22 23 24 25 26 27 28 29 30 31 32 33 34 35 36 37 38 39 40 41 42 43 44 45 46 47 48 49 50
000
ASUS43 KJKL 050010
RWRJKL

EAST KENTUCKY HOURLY WEATHER ROUNDUP
NATIONAL WEATHER SERVICE JACKSON KY
800 PM EDT FRI SEP 04 2015

NOTE: "FAIR" INDICATES FEW OR NO CLOUDS BELOW 12,000 FEET WITH
NO SIGNIFICANT WEATHER AND/OR OBSTRUCTIONS TO VISIBILITY.

* THESE REPORTS ARE NOT UNDER NWS QUALITY CONTROL AND MAY NOT
  REPORT WEATHER SUCH AS PRECIPITATION AND FOG.

KYZ079-080-083-085-087-088-110-112-115-119-120-050100
...EASTERN KENTUCKY...

CITY           SKY/WX    TMP DP  RH WIND       PRES   REMARKS
JACKSON          N/A     78  67  68 CALM      30.09R
6HR MIN TEMP:  78; 6HR MAX TEMP:  88;

LONDON           N/A     83  64  52 NE3       30.06R
6HR MIN TEMP:  83; 6HR MAX TEMP:  93;

SOMERSET*        N/A     82  64  54 CALM      30.05R
MONTICELLO*      N/A     79  71  76 CALM      30.06R
6HR MIN TEMP:  79; 6HR MAX TEMP:  94;

MIDDLESBORO*     N/A     80  67  66 CALM      30.06R
6HR MIN TEMP:  80; 6HR MAX TEMP:  90;

HARLAN APT*      N/A     77  64  65 MISG      30.08R
HAZARD APT*    CLEAR     81  66  61 CALM      30.08R
BLACK MTN*       N/A     68  63  83 NW2         N/A
PIKEVILLE APT* CLEAR     77  70  78 N3        30.10R
BIG SANDY*       N/A     80  70  71 CALM      30.09R
6HR MIN TEMP:  79; 6HR MAX TEMP:  89;

MOREHEAD APT*    N/A     81  68  65 CALM      30.09R
$$

KYZ035-036-041-042-044-050-067-078-099-050100
...CENTRAL KENTUCKY...

CITY           SKY/WX    TMP DP  RH WIND       PRES   REMARKS
MT STERLING*     N/A     84  68  58 SE5       30.07R
FLEMING/MASON* MOCLDY    79  64  61 NE18G30   30.10R
DANVILLE*        N/A     81  64  57 CALM      30.05S
RICHMOND*        N/A     81  63  54 CALM      30.04F
LEXINGTON        N/A     85  64  49 N5        30.05R THUNDER
6HR MIN TEMP:  85; 6HR MAX TEMP:  94;

FRANKFORT        N/A     85  68  56 CALM      30.03R
6HR MIN TEMP:  84; 6HR MAX TEMP:  93;

$$

KYZ091>093-OHZ055-061-077-WVZ005-015-034-035-042-050100
...SOUTHERN OHIO/WEST VIRGINIA...

CITY           SKY/WX    TMP DP  RH WIND       PRES   REMARKS
COVINGTON      TSTM      74  68  81 NE12      30.08S
COLUMBUS       CLOUDY    69  66  90 CALM      30.07F
DAYTON         TSTM      70  65  84 SW12      30.13R
WILMINGTON       N/A     70  64  81 CALM      30.09R
HUNTINGTON       N/A     75  68  78 CALM      30.07R
CHARLESTON       N/A     82  67  60 CALM      30.07R
PINEVILLE*       N/A     72  69  91 MISG      30.15S
BECKLEY        TSTM      72  66  81 E5        30.17R
BLUEFIELD        N/A     72  64  76 SE3       30.18R
$$

VAZ002-007-008-TNZ017-027-036-066-071-050100
...SOUTHWEST VIRGINIA/EAST TENNESSEE...

CITY           SKY/WX    TMP DP  RH WIND       PRES   REMARKS
WISE*            N/A     77  61  57 N6        30.17R
JONESVILLE*      N/A     81  68  65 CALM      30.08R
ABINGDON*        N/A     79  62  56 CALM      30.11R
BRISTOL          N/A     81  67  62 CALM      30.07R
KNOXVILLE        N/A     86  63  45 E5        30.00S
OAK RIDGE        N/A     85  68  56 CALM      30.03R
CROSSVILLE       N/A     80  65  59 N5        30.08R
NASHVILLE        N/A     89  60  37 E3        29.99S
$$

...KEY TO REMARKS...
VSB - VISIBILITY IN MILES
WCI - WIND CHILL INDEX
HX  - HEAT INDEX

$$



USA.gov is the U.S. government's official web portal to all federal, state and local government web resources and services.